Location: ????????
(55.7667°N, 37.4833°E)
Time: 02:43:23
(UTC+00:00)

CZ-2C R/B - Pass Details

Date: 19 May 2025
Orbit: 782 x 867 km, 98.4° (Epoch: 15 June)

Event Time Altitude Azimuth Distance (km) Brightness Sun altitude
Exits shadow 22:36:30 16° 175° (S) 1,959 4.0 -12.8°
Maximum altitude 22:40:39 68° 257° (WSW) 849 2.6 -12.6°
Drops below altitude 10° 22:45:49 10° 340° (NNW) 2,354 5.8 -12.4°
Sets 22:48:10 0° 343° (NNW) 3,289 6.7 -12.3°
